Wind_Speed
64 63 62 60 58 58 58 58 56 53 51 49 49 50 47 45 46 42 31 32 38 33 24 22 21 22 22 22 23 24 21 19 20 24 28 32 35 34 32 31 31 31 30 29 28 27 25 24 21 17 15 16 16 17 17 19 21 21 21 20 19 19 19 18 17 17 18 18 17 16 16 16 16 17 17 18 19 20 21 21 22 23 24 26 26 26 25
67 66 65 62 60 60 60 58 57 56 54 51 50 50 48 47 47 41 34 37 39 34 28 23 22 24 25 25 26 25 22 20 21 25 29 32 35 35 32 31 32 32 31 30 29 27 26 25 22 18 16 16 18 19 19 20 20 20 21 20 19 20 19 18 18 20 21 20 20 19 19 18 18 18 18 18 19 20 21 21 21 23 24 26 25 25 25
70 68 68 66 63 62 61 59 58 57 56 54 53 53 51 50 49 44 39 41 40 34 29 26 25 27 29 29 28 27 25 24 24 26 28 30 33 33 31 31 32 33 31 29 28 29 28 26 23 21 18 17 19 21 22 22 22 22 22 21 20 19 18 18 21 23 23 23 22 21 21 21 21 22 21 20 19 20 21 22 22 23 24 25 25 25 25
72 70 70 69 66 65 63 61 59 58 58 57 55 55 55 53 50 45 43 45 40 31 27 27 26 28 30 31 30 29 29 28 27 27 29 30 31 30 30 31 33 33 32 30 30 30 27 24 24 24 21 19 20 23 23 23 23 24 24 22 20 19 17 19 23 24 25 25 24 23 23 23 24 24 24 23 22 21 21 22 23 24 24 25 26 26 26
75 72 72 71 69 67 65 62 60 59 60 58 57 57 56 54 52 48 47 45 35 27 28 30 29 30 31 32 32 31 32 32 30 29 29 30 31 30 30 31 32 33 33 32 32 31 27 26 27 27 24 22 21 21 23 25 26 26 26 24 22 20 20 21 24 25 26 27 26 25 25 25 26 27 27 25 24 24 22 22 23 24 25 27 28 28 27
78 74 73 73 73 70 66 63 61 61 61 60 59 58 56 55 53 51 48 42 34 30 33 34 31 32 34 34 34 34 34 34 33 31 31 32 33 33 31 31 32 32 32 32 32 31 29 30 32 30 28 26 23 21 23 26 28 29 30 28 26 24 23 23 24 25 27 27 27 27 27 28 29 29 28 27 26 26 25 25 24 24 25 28 29 29 28
81 77 75 76 76 70 66 65 63 61 61 61 60 59 58 56 55 53 50 45 39 36 36 35 33 34 36 36 36 36 36 35 35 34 32 33 35 36 34 32 33 33 32 30 30 31 31 34 36 33 30 30 28 26 26 26 27 29 30 30 29 28 27 26 25 25 26 27 27 28 29 30 30 30 30 29 28 28 27 27 26 24 25 27 29 30 29
83 80 78 79 77 71 69 69 66 61 59 59 60 61 60 58 57 56 54 50 43 39 38 38 37 38 38 37 37 36 36 36 37 37 35 33 35 37 36 34 34 35 34 30 29 31 34 37 37 34 32 30 28 27 27 27 28 28 29 31 31 30 29 28 26 25 25 26 27 28 29 30 31 30 31 31 31 30 29 28 28 26 26 27 28 29 29
84 82 81 81 79 75 73 72 68 63 59 58 61 63 61 58 57 56 54 52 47 43 41 40 41 41 40 39 39 37 36 36 37 38 36 34 35 38 39 37 36 37 38 35 31 31 34 36 36 36 35 32 30 29 30 30 30 28 28 30 30 30 30 30 29 26 25 26 28 29 30 31 31 31 32 33 34 34 33 31 29 29 28 27 27 28 29
84 83 83 83 82 79 76 73 71 66 61 59 62 63 61 57 55 56 54 52 50 47 44 44 44 44 42 41 41 39 36 36 36 36 37 36 36 39 42 41 39 40 41 39 37 35 34 34 35 36 36 35 34 33 31 29 28 26 27 29 31 31 31 31 31 30 30 32 32 32 33 34 34 34 34 35 37 38 37 34 32 31 30 29 29 29 28
83 83 84 85 84 82 78 75 74 69 64 60 60 62 62 57 55 55 55 53 51 49 47 46 46 46 45 44 42 40 38 37 37 36 37 37 37 39 42 44 44 43 43 43 42 40 38 37 37 37 38 38 36 33 30 29 29 28 28 30 32 33 33 34 35 35 35 36 36 36 36 37 37 38 38 39 41 41 41 39 36 35 34 32 31 30 29
84 85 86 86 85 83 79 77 75 72 68 62 59 63 65 60 56 56 54 52 51 49 48 47 46 45 45 43 42 41 40 39 38 38 37 38 39 40 42 44 45 46 46 44 44 44 43 41 39 37 37 37 35 33 32 32 31 30 30 31 33 35 37 39 39 38 38 38 37 38 39 39 40 41 41 41 43 44 44 42 40 38 37 36 34 33 32
84 84 86 87 85 83 80 77 74 73 71 65 62 64 66 61 57 56 54 52 51 50 49 48 47 44 42 42 43 42 41 39 39 39 39 38 39 40 42 44 45 45 45 43 42 42 42 41 39 36 35 34 34 35 35 35 33 32 32 34 37 39 41 41 40 40 41 41 40 41 42 43 43 43 42 42 45 46 44 42 43 43 41 40 39 37 36
83 83 84 85 85 83 79 76 74 74 72 69 65 65 65 62 58 55 52 51 50 50 49 49 47 43 41 41 43 41 40 39 38 38 39 38 38 40 42 44 46 45 43 41 41 41 41 40 40 39 37 36 36 36 37 37 35 34 35 37 38 40 41 41 41 42 43 43 42 42 44 46 47 45 42 43 47 48 44 41 42 45 45 44 43 41 40
84 83 83 84 85 84 79 74 73 73 73 70 67 65 63 61 58 54 51 49 49 49 48 47 48 46 42 41 42 41 39 38 37 38 38 38 38 40 42 44 47 48 45 43 42 42 42 42 42 42 42 41 40 39 39 39 39 39 40 40 40 42 43 43 43 44 44 44 43 43 45 47 47 46 45 46 48 49 48 48 47 47 49 49 47 45 44
85 83 84 87 87 83 75 70 70 72 72 71 68 65 63 60 58 55 51 48 47 48 47 47 47 47 45 43 43 43 41 39 39 39 38 38 38 39 41 43 46 48 49 48 46 45 45 46 45 45 46 46 46 45 44 44 45 45 44 44 44 45 45 45 44 44 45 46 46 46 47 48 48 48 49 51 51 49 49 49 48 47 50 53 52 49 47
85 84 84 84 82 76 69 65 65 68 70 69 66 64 62 60 57 55 52 48 47 48 48 48 47 46 45 43 43 43 43 42 42 41 40 39 39 39 40 43 44 46 48 49 49 50 50 49 49 49 49 50 50 50 49 49 50 49 49 49 49 49 48 48 47 46 46 47 48 49 50 50 51 50 50 51 52 50 48 48 49 48 50 54 56 54 49
78 81 84 81 74 68 65 62 61 63 64 65 64 61 60 60 57 54 52 50 49 49 49 50 49 47 46 45 44 44 44 44 45 45 43 42 41 40 41 41 42 44 45 47 49 50 50 50 50 50 50 51 51 52 51 51 51 50 51 51 50 50 50 49 48 48 48 49 51 52 53 53 53 52 52 53 55 54 54 55 55 52 50 52 57 58 54
71 75 80 80 71 64 62 58 56 58 59 59 60 58 58 59 58 55 54 53 52 52 52 51 51 49 48 48 48 47 45 45 45 45 45 44 42 42 42 41 41 41 42 44 45 46 47 48 48 49 49 50 49 49 48 47 46 47 47 47 48 48 49 49 49 50 51 51 53 54 56 56 56 55 56 57 58 59 60 60 58 56 54 53 53 55 55
68 69 73 77 70 61 58 53 50 54 57 56 57 58 57 56 55 54 54 54 54 54 54 53 53 52 52 52 52 51 48 46 45 45 44 44 43 43 43 43 42 41 41 41 42 42 42 42 43 44 46 46 46 46 45 44 44 45 45 46 47 48 49 50 51 52 53 53 54 55 56 57 57 57 57 57 57 58 59 60 59 59 59 56 53 53 54
66 64 66 72 68 57 54 52 50 54 58 57 58 57 55 55 57 56 56 56 56 56 56 55 54 55 56 56 56 55 53 50 47 46 44 44 44 43 43 43 43 43 44 44 43 43 42 42 42 43 44 45 46 46 47 47 47 47 47 48 49 49 50 50 51 52 53 54 55 55 56 58 59 59 59 59 58 58 58 59 61 62 63 61 57 55 56
64 58 56 65 65 56 53 55 54 56 59 60 61 58 53 54 58 60 60 61 60 58 57 57 57 56 58 60 60 59 58 54 51 48 46 45 44 44 44 44 43 44 45 45 45 45 44 44 45 46 47 48 49 50 50 51 50 50 50 50 50 51 50 50 51 52 53 53 55 56 57 59 60 62 63 63 63 62 61 61 61 63 65 65 63 63 62
60 54 50 60 64 57 53 57 58 58 59 62 63 60 54 53 56 59 60 61 62 59 57 58 62 62 60 62 63 62 61 59 56 53 51 49 48 48 48 47 47 46 46 46 46 46 46 46 47 48 50 51 52 53 53 53 53 52 51 51 51 50 49 49 49 50 52 54 55 56 58 60 62 65 66 67 66 67 66 65 64 64 65 66 68 69 68
57 57 55 61 64 58 55 59 61 61 61 62 62 59 56 54 53 55 58 59 57 55 53 54 61 64 63 62 63 62 62 60 58 56 54 53 53 53 52 52 52 51 50 50 50 50 50 50 50 51 53 54 55 56 55 54 54 53 52 51 51 50 49 49 49 49 52 54 55 56 58 60 63 66 68 69 70 70 70 70 70 69 68 68 69 70 70
51 57 59 63 64 60 59 61 60 62 64 63 62 59 55 53 53 54 56 55 50 49 51 55 59 61 61 59 58 58 60 60 59 57 55 54 55 55 55 55 55 54 54 54 54 54 54 54 53 54 55 56 57 57 56 55 54 53 51 51 50 50 49 49 49 51 52 53 54 56 57 59 62 66 67 68 69 70 71 74 76 76 75 74 72 71 72
44 50 59 66 65 62 64 64 61 63 67 66 65 60 49 45 52 55 53 50 48 47 52 57 57 56 55 53 52 53 56 58 59 58 57 57 58 58 58 57 57 57 58 58 58 58 58 58 57 57 57 59 60 59 57 55 53 51 50 48 47 48 48 48 49 51 52 53 55 56 57 59 62 64 65 67 69 72 73 74 76 79 80 79 78 76 76
42 45 55 66 66 63 66 66 62 64 67 67 68 62 42 33 45 55 52 49 50 51 51 52 51 51 51 50 50 52 53 54 56 56 56 57 58 57 58 58 59 60 61 60 60 60 58 57 55 55 55 57 57 56 54 52 51 49 47 45 45 46 46 47 48 49 49 51 53 55 57 59 60 61 64 67 71 76 80 81 84 86 85 82 80 80 79
43 46 51 62 69 67 65 64 61 62 65 66 71 69 48 29 35 49 50 47 49 51 49 47 46 48 50 50 50 51 51 51 52 51 51 52 53 54 55 56 56 57 57 57 56 56 54 53 52 51 51 51 50 49 49 48 47 46 44 43 44 44 45 46 46 47 48 50 51 53 55 57 58 61 62 62 68 74 77 79 82 84 85 82 81 83 81
40 47 49 58 71 74 68 62 58 58 61 62 67 72 60 40 33 41 47 47 48 48 47 44 43 47 50 50 49 50 49 49 49 48 49 50 52 53 54 53 52 52 53 53 54 53 52 51 51 50 48 47 46 45 44 43 42 41 41 42 43 44 44 45 45 45 47 48 49 51 53 55 58 60 58 58 61 58 52 51 53 58 70 77 77 83 84
35 42 46 54 66 73 72 65 57 53 52 51 51 56 58 50 41 40 43 45 46 45 44 44 45 47 48 48 47 47 47 47 48 48 49 50 50 52 52 52 51 51 51 51 51 50 49 48 46 45 44 44 43 42 41 40 40 39 40 41 43 43 44 44 44 44 46 47 49 50 51 53 56 54 51 51 46 34 32 40 36 35 55 72 70 71 76
33 39 45 51 57 62 66 67 62 52 42 37 35 39 46 48 43 38 37 36 36 36 39 43 46 48 48 46 45 46 48 49 49 48 48 48 49 50 51 51 50 50 49 49 48 47 47 47 45 43 42 42 42 41 40 39 39 40 40 41 42 42 43 43 43 43 44 45 47 48 48 50 50 47 45 46 41 30 29 40 34 24 35 53 58 58 65
29 35 43 50 54 56 58 64 64 52 38 31 30 33 38 41 39 36 33 32 30 31 34 38 42 46 49 48 47 49 50 48 45 42 41 42 44 48 51 52 52 51 50 50 50 49 47 47 45 44 43 42 41 40 39 39 39 40 41 42 42 42 42 43 42 41 41 43 44 44 43 44 43 40 38 37 36 36 32 33 40 24 16 32 46 51 58
20 28 36 43 50 53 53 57 61 55 43 34 31 30 33 35 34 32 31 30 29 30 30 32 36 41 45 47 47 47 46 42 38 35 35 36 39 42 45 48 50 49 48 48 49 48 46 44 44 44 43 42 40 39 39 39 39 39 40 41 42 42 41 41 40 39 39 40 40 38 36 35 33 32 30 26 23 25 26 20 34 32 22 14 24 30 34
15 21 29 36 41 43 43 47 55 59 53 42 32 28 29 29 28 28 28 28 29 29 30 31 33 35 38 40 40 40 40 38 36 36 36 36 37 38 40 42 43 44 44 44 44 44 43 42 43 43 43 42 42 42 41 41 41 42 41 40 39 39 39 38 37 36 36 36 35 31 28 27 24 21 22 20 15 14 13 13 17 19 15 10 12 14 15
15 16 21 29 34 34 34 38 47 56 57 47 34 27 27 27 26 26 27 28 29 30 31 32 33 32 32 33 34 36 38 38 37 37 36 35 35 36 37 38 39 40 41 41 40 40 40 40 41 42 43 43 44 44 44 44 44 43 42 40 39 38 36 35 35 34 33 32 31 27 24 23 21 18 17 17 15 13 15 15 15 12 8 7 8 10 14
17 14 15 19 23 24 25 29 36 45 50 45 35 29 27 28 27 28 29 31 33 34 34 34 34 34 34 35 35 37 38 38 36 35 33 32 33 35 36 35 36 36 38 38 38 38 38 38 38 39 40 41 42 43 43 44 44 42 42 41 39 37 34 33 33 33 31 29 28 26 23 22 21 21 19 16 15 14 15 18 20 18 14 11 10 11 15
16 14 14 15 16 18 20 24 30 35 40 39 35 31 29 29 29 29 30 34 37 38 38 38 39 39 38 37 36 36 36 35 34 33 30 30 32 34 35 35 35 35 36 36 36 36 36 36 36 37 38 39 40 41 42 43 42 41 40 39 38 35 33 31 30 30 29 27 25 23 23 22 22 21 20 18 17 16 16 17 19 20 19 18 16 16 16
15 11 11 12 13 15 16 19 24 28 30 32 32 31 31 32 32 33 34 36 38 39 39 40 40 39 37 35 34 34 33 33 33 32 30 30 32 34 35 35 35 35 35 35 35 35 35 35 35 36 37 38 39 39 40 40 40 39 38 38 37 35 34 33 30 27 26 25 24 22 23 25 25 24 23 22 22 22 22 21 21 22 23 23 23 23 21
21 15 10 11 13 13 13 15 19 22 23 24 25 26 27 29 30 33 36 37 37 37 38 40 40 36 33 32 32 32 32 31 30 30 30 30 31 33 34 35 35 35 36 36 35 35 35 34 34 35 36 37 37 37 37 37 38 38 37 36 35 34 33 33 32 29 27 26 25 24 24 26 27 27 26 26 26 27 27 25 25 25 25 26 28 28 27
25 20 15 13 13 14 13 14 16 18 19 20 20 19 20 19 20 23 27 29 31 32 34 35 35 31 29 30 30 30 30 29 29 28 28 28 29 30 31 32 33 34 34 35 35 34 33 33 33 33 34 35 35 34 34 34 35 36 36 35 33 31 30 30 30 30 29 28 28 27 25 26 28 28 28 28 28 29 28 27 25 23 23 23 24 25 26
21 21 20 17 15 14 14 14 14 15 17 18 19 19 19 19 21 24 26 27 29 31 32 32 32 30 29 29 29 28 28 29 28 28 28 27 28 28 29 30 31 32 32 32 33 32 32 32 32 33 33 33 33 31 31 32 34 35 36 35 33 31 29 28 29 30 30 30 30 28 27 26 26 27 26 27 27 27 27 26 23 20 18 19 20 21 23
21 19 20 18 16 16 15 14 14 15 16 17 19 19 19 20 22 25 27 28 29 31 32 32 32 31 30 29 28 28 28 28 29 28 28 28 28 28 29 30 30 30 30 30 31 31 31 31 32 33 33 32 32 30 29 29 31 32 32 31 31 30 31 31 32 32 32 32 32 30 28 27 26 26 26 26 25 23 22 21 20 19 18 20 23 24 25
21 18 17 15 15 14 14 14 14 15 15 16 16 16 17 17 19 21 22 24 25 27 27 27 28 28 28 27 27 27 27 27 28 28 28 28 29 29 29 29 29 29 29 29 29 29 30 30 31 32 33 33 32 32 31 30 30 30 30 30 30 31 31 32 32 32 32 31 31 29 28 28 27 27 26 26 26 24 21 20 19 19 21 24 26 26 25
18 17 16 14 13 12 12 13 13 13 13 13 14 14 15 16 17 18 19 20 21 22 22 22 22 23 24 24 24 24 25 26 27 27 27 28 29 29 28 28 28 28 28 28 27 27 28 28 28 29 31 31 31 32 32 32 31 31 32 32 32 32 32 32 32 31 31 30 29 28 28 27 27 28 28 28 28 29 29 27 24 22 23 24 25 26 25
14 14 14 13 12 11 10 10 10 10 10 11 11 12 13 15 16 16 16 16 17 19 19 19 19 20 21 21 22 23 23 24 25 26 26 27 28 28 28 28 28 28 28 28 28 28 27 28 28 28 28 29 29 29 29 30 30 31 31 32 32 32 32 32 32 31 31 30 29 28 28 28 28 28 28 28 29 30 32 32 29 27 25 24 23 24 26
11 12 11 11 10 9 8 7 7 7 8 9 9 10 11 13 14 14 14 15 16 17 18 18 18 18 19 20 21 22 23 24 25 26 27 27 28 28 28 28 28 28 28 27 27 27 27 27 27 27 27 27 27 27 27 28 28 28 29 29 30 30 30 30 30 30 30 29 29 28 28 28 28 28 28 29 29 28 28 28 28 27 26 26 26 27 28
9 8 8 8 7 6 5 4 3 3 4 5 6 7 8 10 11 12 13 14 15 16 17 17 17 18 18 19 20 21 23 24 24 25 26 26 27 27 27 27 27 26 26 24 24 24 24 24 25 25 25 25 25 25 25 26 26 26 27 27 27 27 27 27 28 28 28 29 29 29 29 29 29 29 29 31 31 29 27 26 27 28 28 28 26 26 28
8 8 7 6 5 4 3 2 1 2 2 3 3 4 6 6 8 9 10 11 12 13 13 14 15 15 16 18 19 20 20 21 22 22 23 24 24 25 25 25 25 25 25 24 23 23 23 23 24 24 24 25 25 24 24 25 25 25 25 25 25 26 26 26 27 27 27 28 28 29 30 30 30 30 31 32 33 32 31 31 33 36 38 38 35 33 33
7 7 6 5 5 4 3 3 3 4 4 5 5 6 6 7 8 8 9 10 10 10 11 11 12 13 14 15 16 17 18 19 19 20 20 21 22 23 23 24 24 24 24 25 25 25 25 25 25 25 26 26 26 26 26 26 26 26 26 26 26 26 27 27 27 28 28 28 28 28 29 30 30 31 32 33 35 34 33 33 33 35 38 40 41 40 40
8 7 7 7 6 6 5 5 5 5 6 6 6 6 6 7 8 9 10 11 11 11 12 12 13 14 14 15 16 17 17 18 19 20 20 21 21 22 22 22 23 23 24 24 24 25 25 25 26 26 27 27 28 28 28 28 27 28 28 28 28 29 29 29 30 30 30 30 29 29 30 30 31 32 32 34 36 37 38 38 38 38 39 40 41 43 44
9 9 9 9 9 9 9 9 10 10 10 10 10 11 11 11 11 12 13 13 14 14 15 15 16 17 17 18 19 19 20 21 21 22 23 23 24 24 24 24 24 25 25 26 26 26 27 27 27 27 28 28 29 29 29 29 29 29 29 29 30 30 31 31 32 32 33 33 33 32 32 32 33 33 34 35 36 38 39 41 43 44 45 45 45 45 46
10 10 11 11 11 12 12 13 13 14 14 14 15 15 16 16 17 17 17 18 18 19 19 20 20 20 21 22 22 23 24 24 25 25 26 26 27 27 27 27 27 27 28 28 28 29 29 30 30 30 30 30 31 31 31 31 31 31 31 31 31 32 32 32 33 33 34 34 35 35 35 35 35 36 36 37 38 40 41 42 44 45 46 47 47 48 49
Wind_Direction
231 231 231 230 230 231 232 233 235 234 233 233 234 238 241 241 243 245 244 244 247 245 230 214 213 214 213 216 223 227 227 226 225 229 227 220 219 222 224 227 229 229 229 231 234 235 233 232 234 238 243 244 241 237 234 233 235 238 242 245 247 251 254 257 263 268 270 274 277 279 281 282 282 281 276 273 274 276 277 276 271 265 256 249 245 244 242
232 232 231 230 230 232 233 234 236 236 236 236 237 238 239 241 244 245 241 241 244 244 237 224 215 215 216 218 224 228 230 228 222 224 226 222 222 224 223 226 232 232 231 232 235 239 239 236 237 243 249 248 246 246 244 243 245 248 251 253 253 253 254 258 263 264 265 269 272 276 282 284 285 288 286 279 276 278 279 278 275 270 262 255 252 251 249
233 233 233 232 230 232 234 235 236 238 239 239 239 239 237 238 240 240 238 239 239 239 239 232 220 217 218 220 224 228 231 230 224 222 225 225 227 228 225 224 229 231 232 233 236 238 241 240 240 245 248 244 241 243 244 245 247 250 254 254 253 254 256 259 261 261 262 265 268 271 276 280 284 288 290 288 287 284 280 277 275 272 266 262 260 258 257
232 232 233 233 232 232 234 234 236 238 239 239 239 239 239 238 238 237 237 237 237 237 242 241 231 224 220 220 224 228 230 231 228 224 225 226 228 230 228 226 227 230 231 233 235 238 243 246 243 241 240 237 235 236 239 242 246 250 254 252 250 251 255 257 259 260 261 262 265 269 272 277 282 284 285 290 295 296 290 281 275 272 268 266 263 263 263
232 230 232 234 233 232 233 234 234 236 238 238 238 239 241 241 240 239 238 238 237 236 239 242 239 232 225 220 222 227 231 233 230 225 224 227 229 231 231 230 230 231 231 232 235 239 245 247 242 237 233 233 234 235 236 237 238 244 249 249 248 248 248 252 257 258 259 259 262 265 269 274 278 280 284 289 293 294 292 288 284 278 271 265 263 265 267
231 229 230 233 233 232 232 232 231 232 236 238 237 238 240 242 243 243 241 239 234 229 230 235 238 237 232 225 220 223 228 233 234 230 225 225 227 230 232 232 233 235 236 235 235 239 244 243 241 237 233 232 233 236 238 238 237 239 241 243 245 246 244 247 253 256 257 257 259 262 265 269 273 277 281 285 287 288 290 292 293 287 275 268 266 268 269
231 229 229 231 233 232 231 231 230 231 234 235 237 238 239 240 243 244 242 238 232 227 228 231 234 236 235 230 225 223 225 230 234 233 228 224 225 229 233 234 234 237 241 238 235 235 238 241 243 243 242 241 237 235 239 243 244 243 241 239 243 246 245 244 247 251 254 255 257 259 261 266 270 273 275 278 280 283 285 288 290 287 279 273 269 269 269
231 230 229 231 232 232 232 232 230 228 229 232 235 237 237 239 241 242 242 240 233 227 227 230 232 235 235 234 231 227 224 225 229 232 230 227 225 227 231 233 234 238 242 242 237 232 232 238 243 246 248 245 238 235 239 243 248 249 243 239 241 245 246 245 245 248 251 253 254 256 258 262 265 266 268 271 273 275 278 280 282 283 281 278 275 273 270
230 230 230 231 232 232 232 233 232 228 227 230 235 236 236 237 240 241 242 242 238 231 226 227 231 234 236 236 236 232 226 223 224 228 231 229 226 228 231 232 232 235 239 242 242 237 235 238 242 246 246 243 241 245 248 248 251 253 247 241 242 245 247 248 248 247 248 249 250 252 255 258 260 262 264 264 264 266 268 271 275 277 276 275 274 273 269
229 230 231 232 232 231 231 232 233 231 227 229 233 236 236 236 239 241 242 241 240 235 227 224 228 232 235 237 238 236 231 226 224 226 231 231 227 226 230 233 232 233 236 240 242 243 241 240 242 244 243 241 245 252 253 252 255 257 252 247 246 247 249 250 250 248 247 246 246 247 249 252 255 256 257 258 259 260 261 262 265 268 267 266 268 270 269
227 229 231 232 232 232 230 231 233 232 228 227 230 235 235 233 235 238 239 239 239 236 230 226 226 230 234 237 240 239 237 234 230 230 233 234 231 226 228 232 233 234 236 239 241 244 245 243 242 242 241 242 248 253 255 256 259 261 260 254 249 248 250 250 251 251 252 253 254 254 255 256 256 254 251 251 252 253 253 254 256 258 259 261 264 267 267
225 228 231 232 233 233 232 231 232 232 230 226 226 232 234 233 233 235 237 237 238 237 235 232 230 230 233 236 239 241 241 240 239 237 235 236 234 230 228 230 233 234 235 238 241 244 248 249 249 248 247 248 253 257 258 260 263 266 266 259 251 248 249 251 253 257 258 260 261 261 261 261 262 262 262 260 257 251 247 246 248 251 256 258 259 262 264
223 226 229 232 233 233 233 232 231 232 231 227 224 229 234 233 233 235 235 236 236 237 237 238 236 235 234 235 238 240 240 241 241 240 237 234 234 232 229 228 231 233 234 236 240 243 247 251 253 253 252 252 255 259 262 264 267 269 267 260 254 253 254 257 260 262 263 265 267 269 270 267 266 267 269 269 269 264 257 251 246 245 249 254 254 256 258
221 224 228 231 232 233 233 233 232 232 232 229 227 229 233 233 232 234 234 235 236 236 237 239 239 237 234 235 238 239 239 239 238 237 237 234 232 232 231 228 229 232 233 234 237 240 244 246 249 250 250 250 253 257 263 267 269 268 265 262 260 262 266 268 269 269 269 270 273 275 275 273 272 272 270 267 269 271 272 270 260 248 244 247 249 250 253
219 221 224 227 230 231 232 233 233 232 232 231 229 229 231 232 231 232 233 234 235 236 236 237 239 238 234 233 235 237 237 237 235 235 235 236 235 233 232 231 230 230 232 234 235 237 240 242 244 246 248 249 251 253 257 261 264 264 264 265 265 267 270 271 273 274 275 275 275 276 275 275 276 279 278 274 274 276 278 281 278 262 249 246 246 246 248
218 219 222 226 229 230 230 231 232 233 232 231 230 229 230 231 231 230 231 232 233 235 235 234 236 238 237 233 232 232 234 234 234 233 233 234 236 236 235 234 233 231 231 233 235 237 240 242 244 246 249 251 252 253 254 256 260 262 263 264 264 266 267 268 269 270 271 271 272 271 272 272 273 274 276 277 278 278 276 277 279 272 259 252 249 246 245
220 220 221 225 228 228 228 229 230 233 234 232 230 230 230 230 231 230 230 230 230 232 234 234 233 235 237 237 234 231 232 233 232 231 232 233 235 237 238 238 237 235 234 234 236 238 241 243 245 247 249 252 253 255 256 257 259 261 262 263 264 265 266 267 267 266 265 265 266 268 269 271 271 271 271 273 275 275 272 271 273 273 268 262 256 250 244
221 221 220 220 222 224 225 228 229 232 234 235 233 230 230 231 232 231 229 229 230 231 232 234 234 234 235 237 238 236 234 233 232 232 233 234 235 236 238 239 240 240 240 240 240 242 244 246 248 250 251 253 255 257 259 260 261 262 263 264 266 267 268 269 269 269 267 266 267 270 272 274 275 273 271 272 273 271 268 268 268 268 271 270 264 256 248
221 222 220 217 218 220 222 223 226 229 232 235 235 233 231 231 233 233 232 229 228 229 231 232 234 235 234 234 237 239 238 236 235 235 234 234 234 235 237 240 241 241 242 243 244 246 248 251 252 254 255 257 259 260 261 262 263 265 267 268 269 270 270 271 271 270 271 270 270 271 273 274 275 274 272 271 270 268 267 268 268 267 270 273 271 264 258
220 221 219 214 213 217 218 215 217 222 227 231 233 233 232 232 232 233 233 230 228 228 229 231 232 234 235 234 234 237 239 238 237 237 235 234 234 233 234 237 239 240 241 243 245 247 249 251 253 254 256 257 258 258 259 260 262 263 264 265 266 266 266 267 267 267 268 269 269 270 271 272 272 272 271 270 269 268 268 268 268 267 268 270 270 267 264
216 217 218 213 209 210 211 207 208 218 223 225 229 231 232 231 231 231 232 230 228 226 227 229 231 233 235 236 235 234 236 237 237 237 236 235 235 235 236 237 238 239 242 244 245 247 250 252 254 256 257 258 259 259 260 261 262 262 263 264 264 264 264 264 265 266 266 267 268 268 269 270 270 270 270 269 268 267 266 265 264 264 263 262 260 257 256
214 214 215 211 205 206 207 204 207 216 219 221 227 230 229 227 224 225 228 230 231 229 228 228 231 233 235 236 237 236 236 237 238 240 240 240 241 243 244 244 244 245 246 247 248 250 252 255 257 258 260 261 262 263 264 264 265 265 266 267 267 267 268 267 267 268 268 268 268 268 268 268 268 267 266 266 265 265 264 263 261 260 260 260 258 255 253
213 213 210 204 202 205 206 204 207 213 216 222 229 231 228 220 212 212 219 226 231 234 234 229 227 229 232 234 237 239 240 241 242 243 245 246 248 249 251 252 253 254 253 254 254 255 256 258 259 260 261 262 263 265 266 266 267 268 268 268 268 268 268 268 268 268 269 270 270 270 269 269 268 267 266 266 265 264 263 262 260 258 257 257 257 258 257
208 211 206 199 197 201 203 202 205 209 213 220 226 226 222 217 208 205 210 217 224 234 236 228 221 221 224 229 232 235 238 241 243 245 247 249 251 252 253 255 256 257 258 258 259 259 259 259 260 260 261 262 263 265 266 267 269 269 269 269 269 269 268 269 268 268 268 269 269 270 270 269 269 268 267 266 265 264 264 262 260 258 256 254 254 254 256
203 208 206 198 194 196 199 200 201 204 208 213 216 216 214 211 207 206 207 211 221 231 229 221 217 216 219 224 229 233 236 238 241 244 247 251 253 254 256 257 259 260 261 261 261 261 260 261 261 260 260 261 263 265 267 268 269 269 269 269 269 269 269 269 269 269 269 270 270 271 271 270 270 269 268 268 268 266 264 262 260 258 255 254 253 252 252
193 199 203 200 194 190 192 195 197 201 204 207 210 211 207 202 203 206 207 210 220 225 219 214 213 214 215 220 226 231 234 237 240 243 246 250 252 254 256 258 260 262 263 263 262 261 261 263 264 262 260 261 264 266 268 269 270 270 271 270 269 269 268 268 268 268 269 270 271 271 272 272 272 272 272 272 271 269 266 263 260 257 254 251 249 249 250
193 193 197 200 197 191 188 191 196 199 201 203 206 208 203 193 198 205 209 214 219 218 213 211 211 211 214 219 224 229 233 236 239 243 246 249 251 252 254 257 259 261 261 261 260 261 261 263 263 262 261 262 264 266 267 269 270 270 271 270 268 267 266 266 267 267 269 271 271 272 273 274 275 276 277 276 275 274 271 266 261 255 250 248 246 245 245
199 197 196 197 198 196 193 192 193 196 200 203 205 206 204 193 193 201 208 214 216 214 212 211 209 210 214 219 222 226 231 236 239 243 245 247 250 252 254 257 259 259 259 259 259 260 260 260 260 260 262 263 265 266 267 268 269 269 269 268 266 265 265 266 268 270 272 273 274 275 277 278 278 280 279 279 282 279 271 267 266 257 245 241 242 241 241
197 199 199 196 196 199 200 197 193 194 198 202 204 207 210 209 204 207 212 216 217 217 218 217 214 214 217 221 223 227 234 239 243 246 248 249 251 253 255 257 259 259 260 261 261 260 260 259 259 260 262 263 265 266 267 268 267 266 265 265 264 265 266 267 270 272 273 274 275 276 278 278 278 278 278 280 286 283 267 262 273 265 246 238 237 235 236
192 197 201 200 198 201 205 205 201 196 196 198 200 204 209 212 212 213 215 218 220 222 225 228 226 222 221 224 227 231 239 246 250 252 254 254 255 257 257 258 259 260 261 261 260 259 259 259 259 260 261 262 264 265 265 266 265 263 264 265 266 267 268 269 271 274 274 275 276 276 277 278 276 276 277 280 284 280 252 245 255 248 233 233 233 229 229
192 197 201 203 204 206 208 209 207 203 200 200 200 200 203 207 208 208 210 215 218 220 223 228 231 229 228 230 234 238 244 250 252 253 254 256 257 257 256 256 257 259 259 257 256 258 260 259 258 260 261 262 264 265 265 266 266 265 265 266 267 270 271 270 272 275 275 276 278 278 279 280 277 276 280 280 279 282 261 237 222 194 194 207 214 215 216
191 198 200 202 207 211 213 212 211 210 207 207 206 201 201 205 207 209 213 218 220 221 223 227 231 233 233 234 238 242 245 248 250 252 255 259 259 256 254 254 256 257 256 254 255 258 261 260 258 259 260 262 264 265 265 267 268 267 266 266 267 269 271 271 273 274 273 275 280 281 282 284 283 284 289 286 286 300 294 240 214 209 194 188 195 206 215
184 195 200 203 206 211 217 218 215 213 214 216 214 208 205 207 211 215 218 220 221 222 223 224 228 232 234 236 240 242 242 244 248 255 265 271 268 262 257 255 255 255 254 254 255 257 259 259 257 256 258 259 261 262 264 267 269 267 265 266 266 267 270 270 271 272 272 273 279 283 285 287 288 290 296 295 286 300 308 260 229 247 272 234 203 212 221
171 188 200 205 208 213 221 221 217 214 217 222 224 217 209 210 214 217 219 220 221 221 223 225 227 231 235 238 240 239 238 244 254 266 275 277 273 267 262 258 255 253 253 254 255 255 256 257 256 256 258 260 260 262 264 267 270 269 267 267 265 265 267 267 266 269 271 271 275 280 283 286 289 287 290 294 278 262 273 264 243 248 262 247 219 212 208
165 177 193 206 214 221 226 224 220 217 218 222 228 227 220 218 218 219 220 222 223 225 227 228 230 235 241 243 242 240 243 253 264 271 273 271 268 266 264 260 256 253 253 254 255 255 257 259 259 260 262 263 263 264 265 265 267 267 266 266 266 265 265 265 264 265 267 267 270 274 275 276 281 282 280 285 281 257 242 247 253 250 235 219 215 210 214
156 160 175 194 211 221 223 222 220 218 217 222 231 236 232 229 228 226 223 223 226 231 235 237 241 247 251 252 250 250 254 261 267 268 268 265 263 263 263 260 256 255 255 256 257 258 259 260 260 261 262 262 262 263 262 262 264 264 264 264 264 262 261 262 262 261 262 261 263 269 272 270 273 279 280 278 279 275 263 257 261 266 265 256 241 226 224
144 145 153 167 187 200 205 210 215 216 217 224 233 237 236 235 237 235 231 229 232 237 241 243 247 251 251 250 251 253 256 259 262 262 262 262 261 261 260 258 256 256 255 255 256 256 257 258 259 259 260 260 261 261 262 261 261 261 260 259 258 255 254 256 256 255 257 259 259 264 271 273 271 272 274 274 274 278 279 274 269 268 268 267 261 251 246
148 153 146 146 164 182 190 199 208 215 221 227 232 234 234 235 236 236 236 237 239 243 244 244 246 247 247 248 252 254 253 252 253 254 257 260 261 261 259 257 256 255 254 254 255 255 255 257 259 259 261 262 262 262 262 260 258 256 254 252 251 249 248 248 249 248 250 255 261 268 275 280 280 277 275 276 279 282 282 279 274 270 269 270 270 267 263
137 151 153 143 148 159 172 184 195 204 213 220 226 233 236 237 236 237 238 240 241 243 244 245 247 250 250 250 251 251 248 248 250 252 256 259 260 259 258 257 256 255 255 255 255 256 257 259 261 262 264 265 265 264 262 258 254 252 249 247 246 245 243 243 245 248 249 253 261 270 277 279 279 279 279 281 284 287 286 283 279 275 272 271 270 270 267
126 140 152 158 159 160 167 178 187 194 201 209 219 229 235 234 231 231 235 239 241 242 243 244 246 247 245 242 241 242 243 246 250 252 253 255 255 256 257 257 257 257 257 258 258 259 260 261 262 263 264 266 266 265 262 257 253 251 249 246 244 245 247 248 250 253 257 259 262 267 271 273 274 277 281 282 283 285 286 286 285 282 277 272 269 266 263
134 138 141 150 163 172 176 183 189 192 196 203 210 217 220 219 213 210 215 223 229 233 236 237 236 233 230 229 232 235 238 242 246 248 250 252 255 256 258 259 260 261 262 262 262 263 264 263 263 263 264 264 265 265 261 258 256 253 251 248 247 248 253 257 258 258 261 264 266 268 270 270 271 274 276 276 278 281 282 281 278 274 269 266 265 263 257
150 150 145 149 162 173 179 187 195 198 200 204 208 212 215 216 214 211 212 216 220 222 223 224 224 224 224 227 230 234 236 240 245 250 253 256 258 260 261 263 264 265 266 266 266 266 265 264 263 263 263 263 264 264 263 261 259 256 253 250 250 252 254 257 260 262 263 264 265 266 267 268 268 268 266 266 269 271 271 270 269 264 257 256 259 258 254
148 154 156 156 161 168 173 180 189 195 197 201 207 212 216 221 222 222 222 223 222 221 220 219 220 223 227 231 234 237 240 244 249 253 256 259 260 261 262 264 265 265 266 266 266 265 265 264 262 262 262 262 262 262 262 260 259 259 257 255 254 255 256 257 259 261 262 262 263 263 262 263 263 263 261 259 258 257 259 264 266 260 252 249 249 246 243
128 137 144 148 154 163 170 176 183 189 193 197 204 211 217 222 226 227 225 224 224 224 225 226 226 228 231 235 239 242 245 248 252 256 258 259 260 261 261 262 263 263 263 263 263 262 261 261 259 258 259 260 260 260 261 261 260 260 260 260 258 257 258 258 259 260 261 261 261 261 260 258 257 257 257 256 253 252 255 259 259 253 248 246 246 246 247
94 105 117 125 132 141 152 164 175 183 189 197 206 213 218 224 230 230 228 227 228 229 231 233 233 232 234 236 239 241 243 246 249 253 255 257 259 260 261 261 261 261 260 260 261 260 259 258 258 257 257 258 259 259 260 261 261 260 259 259 260 259 258 258 258 259 260 260 260 259 257 255 253 253 253 254 253 252 253 253 253 253 251 246 243 247 253
72 80 91 101 109 119 133 147 162 176 186 195 205 214 220 227 232 233 232 231 232 232 233 234 235 235 236 238 239 241 243 245 246 248 251 254 256 258 259 259 260 260 259 258 258 258 257 257 258 258 258 258 258 259 258 258 258 257 256 255 256 257 258 258 259 260 260 261 261 259 258 256 254 252 251 251 250 251 251 249 247 247 248 244 239 241 245
58 62 69 77 86 97 114 131 150 176 195 203 210 218 224 228 233 236 238 239 239 239 239 239 240 242 244 246 247 248 249 251 252 253 254 256 257 259 260 261 261 261 261 260 259 259 259 259 259 260 261 260 259 259 260 259 258 257 257 256 255 255 256 256 257 257 258 259 259 259 257 256 255 252 250 248 246 245 245 243 239 236 236 237 238 239 241
31 31 33 38 44 46 41 27 357 315 296 287 277 270 266 263 260 259 259 259 258 259 259 260 261 262 263 263 264 265 264 265 266 266 266 267 268 268 268 269 269 269 269 270 269 268 267 267 266 266 266 267 266 265 264 264 263 263 263 263 263 262 262 260 259 258 257 257 257 257 257 256 254 251 248 245 244 244 244 243 241 239 239 239 240 241 244
4 4 1 358 358 358 352 342 333 322 313 310 310 305 300 296 293 288 283 279 277 276 276 276 275 275 275 275 275 275 275 274 274 274 273 273 273 272 271 272 272 272 272 273 274 274 274 274 273 272 271 271 271 270 269 268 268 269 269 269 270 270 269 269 268 267 264 262 260 259 258 257 256 254 250 247 246 246 245 242 239 238 240 242 243 243 244
330 327 323 319 315 312 304 296 292 287 281 278 279 278 275 275 277 277 277 278 278 277 276 275 273 273 273 272 271 271 272 271 271 272 271 270 270 271 270 269 269 270 270 270 270 271 272 272 272 273 273 272 272 272 271 270 270 269 270 270 271 271 271 271 271 271 270 269 268 265 263 260 258 257 255 253 251 250 250 247 244 242 244 246 247 247 248
309 307 305 301 297 295 291 286 283 280 275 272 269 267 265 265 265 265 266 268 271 272 274 275 275 275 275 275 274 274 274 273 271 271 271 271 270 271 271 271 271 271 271 271 270 270 270 270 270 270 270 271 272 272 272 272 272 271 270 269 269 268 269 269 269 269 269 269 268 268 267 266 263 261 259 258 256 255 254 254 254 254 255 255 255 255 255
300 298 296 293 290 287 285 282 280 279 278 276 276 275 275 274 274 273 272 271 271 271 271 271 271 271 272 273 273 274 275 276 275 275 275 275 275 275 275 275 275 274 274 274 274 274 273 273 273 272 272 272 272 272 273 273 273 273 272 271 270 269 267 267 266 266 266 266 266 265 265 264 264 263 261 260 259 258 258 257 258 259 260 260 260 260 260
Height
5740 5746 5749 5751 5754 5757 5760 5763 5768 5772 5776 5779 5780 5780 5784 5789 5788 5792 5804 5806 5802 5808 5817 5819 5820 5822 5822 5823 5824 5824 5827 5829 5831 5833 5834 5836 5839 5842 5844 5846 5848 5851 5852 5854 5855 5855 5856 5857 5858 5860 5861 5862 5864 5866 5868 5869 5871 5873 5874 5875 5876 5877 5878 5879 5881 5881 5881 5881 5882 5883 5883 5883 5884 5884 5884 5885 5885 5885 5886 5887 5887 5887 5888 5888 5889 5891 5892
5733 5737 5741 5745 5749 5751 5755 5760 5764 5767 5771 5775 5777 5778 5781 5783 5784 5791 5800 5799 5798 5805 5812 5816 5819 5819 5819 5820 5820 5821 5824 5826 5828 5830 5831 5833 5835 5837 5840 5843 5845 5847 5849 5851 5852 5853 5854 5855 5856 5857 5859 5860 5862 5864 5866 5867 5869 5871 5872 5873 5874 5875 5876 5878 5878 5878 5879 5879 5880 5880 5881 5882 5882 5882 5882 5883 5883 5883 5884 5885 5885 5885 5885 5886 5887 5889 5890
5725 5729 5733 5738 5742 5746 5750 5755 5759 5763 5767 5771 5772 5773 5776 5777 5779 5787 5792 5791 5794 5802 5807 5812 5815 5815 5816 5817 5817 5819 5820 5822 5824 5826 5828 5830 5832 5834 5837 5840 5842 5844 5846 5848 5850 5851 5852 5853 5855 5856 5857 5858 5860 5862 5863 5865 5867 5868 5869 5870 5871 5873 5874 5875 5875 5876 5876 5877 5878 5878 5879 5880 5880 5880 5880 5881 5881 5882 5882 5882 5883 5883 5883 5884 5886 5887 5888
5716 5722 5724 5729 5737 5741 5744 5750 5757 5759 5761 5765 5767 5768 5770 5772 5775 5782 5785 5784 5791 5801 5806 5808 5811 5812 5812 5814 5815 5816 5816 5818 5819 5822 5825 5827 5829 5831 5834 5836 5839 5841 5843 5845 5847 5848 5850 5851 5853 5854 5855 5856 5857 5859 5861 5863 5864 5865 5866 5867 5868 5870 5872 5872 5872 5873 5874 5875 5875 5876 5877 5877 5878 5878 5878 5879 5879 5879 5880 5880 5880 5881 5882 5883 5884 5884 5885
5708 5714 5716 5722 5729 5734 5739 5747 5752 5753 5755 5758 5761 5763 5766 5769 5773 5776 5778 5782 5792 5801 5802 5802 5804 5807 5808 5810 5811 5812 5812 5814 5815 5817 5821 5824 5826 5828 5830 5832 5835 5837 5839 5842 5844 5846 5848 5849 5850 5851 5853 5853 5855 5857 5858 5860 5861 5861 5862 5864 5865 5867 5869 5869 5869 5870 5871 5872 5873 5874 5875 5875 5875 5875 5876 5876 5877 5877 5877 5878 5878 5878 5879 5880 5881 5882 5883
5699 5706 5711 5715 5719 5726 5735 5741 5743 5747 5750 5752 5755 5759 5763 5765 5769 5772 5776 5782 5790 5795 5795 5795 5798 5802 5804 5806 5807 5807 5808 5810 5812 5814 5817 5819 5822 5824 5826 5829 5831 5833 5836 5838 5841 5843 5845 5846 5847 5848 5850 5851 5852 5854 5855 5855 5856 5857 5859 5861 5862 5864 5865 5866 5866 5867 5868 5869 5870 5871 5872 5872 5872 5872 5873 5874 5874 5875 5875 5875 5875 5876 5876 5877 5878 5879 5880
5690 5698 5705 5706 5709 5722 5732 5732 5736 5742 5744 5746 5749 5754 5759 5762 5765 5769 5772 5777 5783 5788 5790 5792 5793 5795 5798 5800 5802 5803 5805 5807 5809 5811 5812 5815 5817 5820 5822 5825 5828 5830 5832 5834 5837 5840 5842 5843 5843 5844 5846 5848 5849 5850 5851 5852 5853 5854 5855 5857 5858 5860 5861 5862 5863 5864 5864 5866 5867 5868 5868 5868 5869 5870 5870 5871 5871 5871 5872 5872 5872 5873 5873 5873 5874 5875 5876
5681 5690 5696 5697 5705 5719 5723 5722 5729 5735 5738 5741 5745 5748 5753 5758 5760 5763 5767 5772 5778 5783 5786 5788 5789 5790 5792 5795 5797 5799 5801 5803 5805 5807 5809 5811 5813 5816 5818 5821 5824 5826 5828 5830 5833 5836 5838 5839 5839 5841 5842 5844 5845 5846 5847 5848 5849 5850 5852 5853 5855 5856 5857 5859 5860 5860 5861 5862 5863 5864 5865 5865 5865 5866 5867 5867 5868 5868 5868 5869 5869 5869 5870 5870 5870 5871 5872
5674 5681 5687 5692 5700 5710 5713 5715 5722 5728 5733 5738 5739 5742 5749 5755 5756 5759 5763 5768 5773 5778 5781 5783 5784 5785 5787 5790 5792 5795 5797 5800 5802 5804 5805 5807 5809 5811 5814 5817 5820 5822 5824 5827 5829 5831 5833 5835 5836 5837 5838 5839 5841 5842 5843 5844 5845 5846 5847 5849 5851 5852 5854 5855 5856 5857 5858 5858 5859 5860 5860 5861 5861 5862 5863 5863 5864 5863 5864 5865 5865 5866 5866 5866 5866 5867 5867
5668 5673 5679 5685 5691 5699 5706 5711 5715 5722 5729 5733 5733 5737 5745 5752 5754 5756 5759 5763 5768 5772 5775 5777 5779 5780 5782 5784 5787 5791 5794 5796 5799 5801 5802 5804 5805 5807 5809 5812 5815 5818 5820 5823 5825 5826 5829 5831 5833 5834 5835 5836 5837 5838 5839 5840 5841 5842 5844 5845 5847 5848 5849 5850 5852 5852 5853 5853 5854 5855 5855 5856 5856 5857 5857 5858 5858 5859 5859 5860 5861 5861 5861 5862 5862 5863 5863
5661 5666 5671 5677 5682 5691 5700 5704 5707 5714 5722 5728 5730 5732 5738 5747 5750 5750 5753 5758 5762 5766 5769 5771 5774 5776 5778 5780 5783 5787 5790 5793 5796 5798 5799 5801 5802 5803 5805 5807 5810 5813 5816 5818 5820 5822 5824 5826 5828 5830 5831 5832 5833 5834 5835 5837 5837 5838 5840 5842 5843 5844 5845 5846 5847 5848 5848 5848 5849 5850 5850 5850 5851 5850 5851 5851 5851 5852 5853 5854 5856 5856 5856 5857 5858 5858 5859
5655 5660 5664 5670 5675 5684 5692 5697 5702 5708 5714 5722 5725 5724 5730 5742 5744 5744 5749 5753 5756 5761 5764 5766 5769 5772 5775 5778 5781 5783 5786 5788 5791 5793 5796 5797 5798 5799 5801 5803 5805 5808 5811 5813 5815 5817 5819 5821 5823 5825 5826 5828 5829 5830 5831 5832 5833 5835 5837 5838 5839 5839 5840 5840 5841 5843 5843 5844 5844 5844 5844 5844 5844 5844 5845 5845 5845 5844 5845 5847 5849 5851 5851 5852 5852 5853 5854
5650 5653 5658 5664 5669 5677 5685 5691 5697 5703 5708 5715 5717 5719 5727 5737 5739 5741 5745 5748 5751 5756 5759 5761 5765 5768 5772 5775 5776 5778 5781 5783 5785 5788 5790 5792 5794 5796 5797 5799 5801 5804 5806 5809 5811 5812 5814 5816 5817 5819 5821 5823 5824 5825 5826 5827 5830 5832 5833 5834 5834 5833 5834 5835 5837 5837 5838 5839 5840 5840 5840 5839 5839 5839 5840 5840 5838 5838 5839 5841 5842 5844 5845 5846 5847 5847 5847
5644 5648 5654 5658 5662 5670 5678 5685 5692 5697 5701 5706 5712 5718 5725 5730 5734 5737 5740 5744 5747 5750 5753 5757 5760 5764 5768 5770 5771 5774 5777 5779 5781 5783 5785 5787 5789 5791 5793 5795 5797 5799 5802 5804 5806 5808 5810 5812 5813 5815 5816 5818 5819 5820 5821 5823 5825 5827 5827 5828 5828 5828 5829 5830 5831 5832 5833 5834 5835 5835 5835 5834 5833 5835 5836 5835 5834 5834 5835 5836 5837 5837 5838 5840 5841 5841 5841
5638 5642 5646 5649 5654 5665 5675 5679 5685 5691 5695 5701 5710 5717 5720 5724 5729 5733 5736 5739 5743 5745 5749 5753 5755 5759 5763 5765 5767 5770 5772 5774 5777 5778 5780 5783 5784 5786 5788 5790 5792 5794 5797 5799 5801 5803 5805 5807 5809 5810 5812 5813 5815 5816 5817 5818 5819 5819 5820 5822 5823 5823 5824 5825 5826 5827 5828 5828 5829 5829 5829 5828 5828 5829 5829 5829 5829 5829 5830 5830 5831 5832 5832 5833 5834 5835 5835
5631 5633 5637 5643 5652 5664 5670 5673 5678 5685 5690 5698 5706 5712 5715 5720 5725 5729 5732 5735 5738 5741 5744 5747 5750 5754 5757 5760 5763 5765 5767 5770 5772 5774 5776 5778 5779 5782 5784 5786 5788 5790 5792 5794 5796 5798 5800 5802 5803 5805 5806 5808 5809 5811 5812 5813 5813 5814 5815 5816 5817 5818 5819 5820 5821 5821 5822 5822 5822 5822 5823 5822 5823 5823 5823 5822 5822 5823 5824 5824 5825 5826 5826 5826 5826 5827 5829
5624 5629 5636 5644 5654 5661 5665 5669 5675 5681 5686 5693 5701 5707 5712 5716 5720 5724 5728 5731 5734 5737 5739 5742 5746 5749 5751 5754 5758 5760 5762 5765 5767 5769 5771 5773 5775 5777 5779 5781 5783 5785 5787 5790 5792 5793 5795 5796 5798 5800 5801 5802 5803 5805 5806 5807 5808 5809 5810 5811 5811 5812 5813 5814 5815 5815 5816 5815 5815 5816 5816 5816 5816 5817 5818 5817 5816 5816 5816 5817 5817 5818 5819 5818 5818 5820 5822
5619 5624 5632 5642 5650 5657 5663 5668 5674 5679 5683 5690 5697 5704 5708 5712 5716 5720 5724 5727 5730 5732 5735 5737 5741 5744 5747 5750 5752 5754 5757 5760 5762 5764 5766 5768 5771 5773 5774 5776 5779 5780 5783 5785 5787 5788 5790 5791 5793 5794 5795 5796 5798 5799 5800 5801 5802 5803 5804 5805 5806 5806 5807 5807 5808 5808 5808 5808 5809 5809 5809 5809 5809 5810 5810 5810 5809 5808 5807 5807 5809 5811 5812 5812 5812 5812 5814
5613 5617 5626 5638 5647 5653 5660 5666 5671 5677 5682 5687 5693 5699 5703 5707 5711 5714 5718 5722 5725 5727 5729 5732 5735 5738 5742 5744 5746 5748 5751 5753 5756 5759 5761 5763 5766 5768 5770 5772 5774 5776 5778 5780 5781 5784 5785 5786 5788 5789 5790 5791 5792 5793 5794 5795 5796 5797 5798 5799 5799 5800 5800 5801 5801 5801 5801 5801 5802 5801 5801 5801 5801 5802 5802 5802 5801 5800 5798 5799 5801 5803 5804 5805 5805 5806 5808
5607 5613 5622 5634 5643 5650 5657 5664 5669 5674 5680 5684 5689 5693 5697 5702 5706 5709 5712 5716 5719 5721 5724 5727 5730 5732 5735 5737 5740 5743 5745 5748 5750 5752 5755 5758 5760 5763 5765 5767 5769 5771 5773 5775 5776 5778 5780 5781 5782 5783 5784 5785 5786 5787 5789 5790 5791 5791 5792 5793 5793 5794 5794 5794 5794 5794 5794 5794 5794 5794 5793 5793 5793 5793 5794 5793 5793 5792 5792 5793 5794 5795 5795 5796 5798 5799 5800
5601 5608 5618 5629 5639 5647 5653 5660 5666 5670 5676 5680 5684 5687 5691 5696 5700 5702 5705 5708 5711 5715 5718 5720 5724 5727 5728 5731 5734 5737 5739 5742 5745 5747 5750 5753 5755 5758 5761 5763 5765 5767 5768 5770 5771 5773 5774 5775 5776 5777 5778 5779 5780 5781 5783 5784 5785 5785 5786 5786 5787 5787 5787 5787 5787 5787 5787 5787 5786 5786 5786 5785 5784 5784 5785 5784 5784 5785 5785 5785 5785 5786 5786 5786 5788 5789 5790
5598 5609 5619 5628 5637 5644 5650 5657 5663 5667 5671 5675 5679 5683 5688 5691 5692 5693 5696 5700 5704 5708 5712 5715 5718 5721 5723 5725 5728 5731 5734 5738 5741 5743 5746 5748 5750 5753 5755 5757 5760 5762 5763 5764 5766 5767 5768 5769 5770 5771 5772 5772 5773 5775 5775 5776 5778 5778 5779 5779 5780 5779 5780 5779 5779 5778 5778 5778 5778 5777 5777 5776 5776 5775 5774 5774 5774 5775 5776 5777 5777 5777 5777 5778 5778 5779 5779
5599 5610 5619 5626 5634 5641 5647 5654 5659 5664 5667 5671 5675 5681 5686 5689 5689 5687 5688 5692 5697 5702 5707 5709 5710 5712 5716 5719 5722 5726 5730 5733 5737 5739 5742 5744 5746 5748 5749 5751 5753 5755 5756 5758 5760 5761 5762 5763 5763 5764 5765 5765 5766 5767 5768 5769 5770 5771 5772 5772 5772 5772 5772 5772 5771 5771 5770 5769 5769 5768 5767 5767 5765 5764 5763 5764 5764 5764 5765 5766 5767 5768 5769 5769 5769 5768 5769
5595 5605 5613 5621 5629 5637 5644 5649 5654 5659 5663 5667 5672 5678 5683 5687 5688 5685 5682 5685 5692 5696 5701 5704 5703 5702 5707 5711 5715 5720 5724 5728 5731 5734 5736 5739 5741 5742 5744 5746 5747 5749 5750 5752 5753 5755 5756 5757 5757 5758 5758 5758 5759 5760 5761 5762 5763 5763 5764 5764 5764 5765 5765 5765 5765 5764 5763 5762 5761 5760 5759 5758 5756 5754 5752 5753 5753 5752 5753 5753 5754 5755 5757 5758 5758 5759 5760
5590 5599 5609 5617 5625 5632 5639 5645 5648 5653 5658 5661 5667 5674 5678 5681 5683 5681 5678 5682 5687 5691 5695 5698 5696 5695 5700 5706 5712 5716 5720 5723 5726 5728 5731 5733 5735 5736 5738 5740 5742 5743 5744 5745 5746 5747 5748 5749 5751 5751 5751 5751 5752 5753 5754 5755 5756 5757 5757 5757 5758 5758 5757 5757 5757 5756 5754 5754 5752 5751 5750 5749 5746 5744 5742 5742 5741 5740 5739 5738 5737 5738 5740 5742 5745 5748 5748
5588 5595 5604 5613 5621 5628 5634 5639 5643 5646 5650 5655 5661 5669 5672 5672 5673 5674 5675 5678 5683 5686 5689 5690 5689 5689 5695 5702 5708 5713 5716 5718 5721 5723 5725 5727 5729 5731 5733 5734 5736 5737 5737 5738 5739 5739 5740 5742 5742 5743 5744 5745 5745 5746 5748 5748 5749 5750 5750 5750 5751 5750 5750 5750 5749 5748 5747 5745 5743 5742 5741 5739 5736 5734 5732 5729 5726 5723 5722 5721 5720 5719 5719 5723 5729 5734 5734
5589 5595 5601 5609 5618 5624 5629 5633 5637 5640 5644 5649 5655 5662 5666 5665 5666 5669 5671 5673 5677 5681 5684 5684 5683 5686 5691 5698 5704 5708 5712 5714 5717 5719 5720 5722 5724 5725 5727 5729 5730 5730 5730 5731 5732 5732 5733 5734 5735 5736 5737 5738 5738 5740 5741 5742 5743 5743 5743 5743 5743 5742 5742 5742 5741 5741 5739 5737 5735 5734 5732 5729 5728 5724 5720 5717 5712 5706 5701 5698 5695 5695 5700 5706 5714 5720 5721
5587 5593 5597 5603 5612 5619 5623 5627 5632 5636 5640 5645 5650 5655 5658 5659 5660 5662 5664 5667 5671 5674 5677 5678 5680 5683 5688 5693 5698 5703 5707 5710 5712 5714 5715 5717 5718 5720 5722 5723 5723 5724 5724 5725 5725 5726 5727 5728 5729 5730 5731 5731 5732 5734 5734 5735 5736 5736 5736 5736 5735 5735 5735 5735 5734 5733 5731 5729 5727 5726 5723 5721 5718 5714 5711 5708 5700 5690 5683 5674 5664 5664 5677 5690 5698 5703 5707
5585 5589 5593 5598 5606 5612 5616 5621 5627 5632 5637 5641 5646 5650 5652 5654 5655 5656 5659 5662 5666 5669 5671 5674 5677 5680 5685 5689 5693 5698 5702 5705 5708 5710 5711 5712 5714 5715 5716 5716 5717 5717 5718 5718 5719 5719 5720 5722 5723 5724 5724 5725 5726 5727 5728 5729 5729 5729 5729 5729 5728 5728 5728 5728 5727 5725 5723 5721 5720 5718 5715 5712 5709 5705 5704 5701 5690 5679 5674 5669 5661 5656 5663 5673 5680 5684 5692
5584 5588 5592 5597 5603 5608 5613 5618 5623 5628 5633 5637 5641 5644 5647 5649 5652 5654 5656 5659 5662 5665 5667 5671 5674 5678 5681 5685 5689 5693 5697 5700 5703 5705 5706 5707 5708 5709 5710 5710 5711 5711 5711 5712 5712 5713 5714 5715 5716 5717 5718 5719 5720 5720 5721 5722 5723 5723 5723 5722 5721 5721 5721 5720 5720 5718 5716 5715 5713 5711 5708 5705 5701 5698 5698 5695 5687 5678 5673 5672 5672 5664 5654 5653 5663 5675 5686
5584 5588 5592 5597 5602 5607 5611 5615 5619 5624 5630 5634 5637 5640 5643 5645 5648 5651 5654 5657 5660 5663 5665 5668 5671 5674 5677 5681 5685 5688 5692 5695 5697 5699 5700 5702 5702 5702 5703 5704 5704 5704 5705 5706 5706 5706 5707 5708 5709 5711 5712 5712 5713 5714 5714 5715 5716 5716 5716 5716 5715 5714 5713 5713 5713 5712 5710 5708 5705 5703 5702 5698 5694 5693 5692 5688 5686 5684 5677 5674 5677 5672 5655 5647 5657 5671 5679
5584 5587 5592 5596 5601 5606 5610 5613 5617 5622 5628 5632 5635 5637 5639 5642 5646 5648 5651 5654 5657 5660 5662 5665 5668 5671 5674 5678 5681 5683 5686 5689 5692 5694 5695 5696 5695 5695 5695 5696 5696 5697 5698 5699 5699 5700 5701 5702 5703 5704 5705 5706 5707 5707 5707 5708 5709 5709 5709 5709 5708 5708 5707 5706 5706 5706 5704 5702 5699 5696 5695 5692 5687 5686 5685 5681 5679 5680 5676 5672 5673 5672 5664 5661 5666 5671 5675
5586 5589 5593 5597 5601 5606 5610 5613 5617 5622 5626 5630 5633 5635 5637 5640 5643 5646 5648 5651 5655 5657 5660 5662 5665 5668 5671 5674 5676 5679 5682 5685 5687 5689 5689 5688 5687 5687 5687 5688 5689 5690 5691 5692 5693 5694 5695 5696 5696 5697 5698 5699 5700 5700 5701 5702 5702 5702 5703 5702 5702 5701 5700 5700 5700 5699 5699 5698 5695 5692 5690 5688 5685 5682 5680 5678 5677 5676 5674 5671 5670 5670 5669 5672 5675 5676 5678
5587 5591 5594 5598 5602 5605 5609 5612 5617 5621 5624 5628 5632 5634 5636 5639 5642 5644 5647 5650 5652 5655 5657 5660 5662 5665 5668 5671 5673 5675 5678 5680 5681 5680 5680 5679 5679 5679 5679 5680 5681 5683 5684 5685 5686 5687 5688 5689 5690 5691 5691 5692 5693 5694 5695 5695 5695 5695 5696 5696 5695 5695 5695 5694 5694 5694 5693 5693 5691 5689 5686 5685 5684 5681 5679 5678 5677 5677 5676 5676 5675 5673 5672 5673 5675 5677 5679
5589 5592 5595 5599 5603 5606 5609 5612 5616 5619 5623 5627 5631 5633 5635 5638 5641 5643 5645 5648 5650 5653 5655 5657 5660 5663 5665 5667 5669 5671 5672 5673 5673 5672 5672 5672 5673 5673 5674 5674 5675 5676 5678 5679 5680 5681 5682 5683 5684 5684 5684 5685 5685 5686 5688 5688 5688 5688 5689 5689 5688 5688 5689 5688 5688 5688 5688 5687 5686 5685 5684 5682 5682 5681 5679 5677 5677 5677 5677 5676 5676 5675 5674 5674 5675 5678 5680
5591 5594 5597 5600 5604 5606 5608 5611 5615 5618 5623 5627 5630 5631 5634 5636 5639 5642 5645 5646 5648 5651 5653 5655 5657 5660 5662 5663 5665 5666 5666 5666 5666 5666 5666 5667 5668 5669 5669 5670 5670 5671 5672 5673 5674 5675 5676 5676 5677 5678 5678 5678 5678 5679 5680 5681 5681 5681 5682 5682 5682 5682 5682 5683 5683 5683 5683 5682 5681 5680 5680 5679 5679 5678 5678 5676 5675 5674 5675 5674 5674 5674 5674 5675 5677 5678 5680
5594 5596 5598 5601 5604 5606 5608 5611 5614 5618 5623 5626 5629 5630 5633 5635 5637 5640 5643 5644 5646 5647 5650 5652 5654 5655 5656 5657 5658 5658 5659 5659 5659 5660 5661 5662 5663 5664 5665 5666 5666 5666 5667 5667 5668 5669 5669 5670 5671 5671 5671 5672 5672 5673 5674 5674 5674 5675 5675 5675 5676 5676 5676 5677 5677 5677 5677 5677 5677 5676 5675 5675 5674 5675 5675 5674 5673 5673 5672 5672 5672 5671 5672 5673 5675 5677 5679
5595 5597 5599 5601 5604 5607 5609 5611 5614 5617 5621 5624 5627 5629 5632 5634 5636 5638 5639 5640 5641 5643 5644 5646 5648 5649 5650 5651 5651 5652 5652 5653 5654 5655 5656 5657 5658 5659 5660 5661 5661 5662 5662 5662 5663 5663 5664 5664 5665 5665 5665 5666 5666 5667 5667 5667 5667 5668 5668 5669 5669 5671 5671 5672 5672 5672 5672 5672 5672 5672 5671 5670 5670 5670 5670 5670 5670 5670 5670 5670 5670 5669 5670 5670 5671 5673 5675
5594 5597 5600 5602 5604 5607 5609 5611 5613 5616 5619 5622 5624 5626 5629 5631 5633 5634 5634 5635 5636 5638 5638 5640 5642 5643 5644 5645 5646 5647 5647 5648 5649 5651 5652 5653 5654 5655 5655 5656 5657 5657 5658 5658 5658 5659 5659 5659 5659 5660 5660 5660 5661 5661 5661 5661 5661 5661 5662 5663 5663 5664 5666 5666 5666 5667 5667 5668 5668 5668 5668 5665 5664 5664 5665 5666 5666 5666 5666 5666 5666 5666 5666 5666 5667 5668 5670
5595 5597 5601 5603 5604 5606 5607 5610 5612 5615 5617 5619 5621 5623 5624 5626 5628 5628 5629 5630 5632 5633 5634 5635 5637 5639 5640 5641 5642 5643 5644 5645 5646 5647 5648 5649 5650 5651 5651 5652 5652 5653 5653 5654 5654 5655 5655 5655 5655 5656 5656 5656 5656 5655 5655 5656 5656 5656 5656 5657 5658 5659 5660 5661 5662 5662 5662 5663 5663 5664 5663 5661 5660 5660 5661 5662 5662 5662 5661 5661 5661 5661 5661 5661 5662 5663 5665
5598 5599 5601 5602 5603 5604 5606 5609 5611 5612 5613 5615 5617 5619 5620 5622 5623 5624 5625 5627 5628 5629 5630 5632 5634 5635 5636 5637 5638 5639 5640 5641 5643 5644 5645 5645 5646 5647 5647 5648 5648 5649 5649 5649 5650 5650 5651 5651 5651 5652 5652 5652 5652 5651 5651 5651 5651 5651 5652 5653 5654 5654 5655 5656 5657 5658 5658 5658 5658 5658 5658 5657 5657 5658 5659 5659 5658 5658 5658 5657 5658 5658 5657 5657 5658 5659 5661
5599 5600 5600 5601 5602 5604 5606 5608 5609 5610 5611 5613 5615 5616 5618 5620 5621 5622 5623 5624 5625 5626 5627 5628 5630 5632 5633 5634 5635 5635 5636 5637 5639 5640 5641 5642 5642 5643 5643 5644 5644 5644 5645 5645 5645 5646 5646 5647 5647 5647 5647 5647 5647 5647 5647 5647 5647 5647 5648 5648 5649 5650 5650 5651 5652 5653 5653 5653 5653 5653 5653 5653 5653 5654 5655 5655 5655 5655 5655 5654 5655 5656 5656 5655 5654 5655 5656
5599 5600 5601 5602 5603 5604 5606 5607 5609 5610 5611 5612 5613 5615 5616 5618 5620 5621 5621 5622 5623 5624 5625 5626 5627 5628 5630 5631 5631 5632 5632 5633 5635 5636 5637 5638 5638 5639 5639 5640 5640 5640 5640 5641 5641 5641 5642 5642 5642 5642 5643 5643 5643 5643 5643 5643 5643 5643 5644 5644 5644 5645 5645 5646 5646 5647 5648 5648 5648 5648 5649 5649 5649 5649 5650 5651 5651 5652 5652 5651 5652 5653 5653 5652 5651 5651 5652
5601 5602 5603 5603 5604 5604 5605 5607 5608 5610 5611 5612 5613 5614 5616 5617 5618 5619 5620 5621 5622 5622 5623 5624 5624 5625 5626 5627 5628 5628 5629 5630 5631 5632 5633 5633 5634 5635 5635 5636 5636 5636 5636 5636 5636 5637 5637 5637 5637 5637 5637 5637 5638 5638 5638 5639 5639 5639 5640 5640 5640 5641 5641 5641 5641 5642 5642 5643 5643 5643 5644 5645 5645 5645 5645 5646 5647 5647 5648 5648 5649 5649 5649 5648 5647 5647 5648
5603 5603 5603 5604 5604 5605 5606 5607 5608 5609 5611 5612 5613 5614 5616 5617 5617 5618 5619 5619 5620 5621 5621 5622 5622 5622 5623 5624 5624 5625 5625 5626 5627 5628 5628 5629 5629 5630 5630 5631 5631 5631 5631 5631 5631 5631 5631 5631 5632 5632 5632 5632 5632 5632 5633 5633 5634 5634 5635 5635 5635 5636 5636 5636 5637 5636 5637 5637 5637 5638 5638 5639 5640 5640 5641 5641 5642 5642 5643 5644 5645 5646 5646 5645 5644 5643 5643
5605 5605 5605 5605 5605 5605 5606 5607 5608 5609 5611 5612 5612 5613 5614 5615 5616 5616 5616 5616 5617 5618 5618 5619 5619 5619 5619 5620 5620 5621 5621 5622 5623 5623 5624 5624 5625 5625 5626 5626 5626 5627 5627 5627 5627 5627 5627 5627 5627 5627 5627 5627 5627 5627 5628 5628 5628 5629 5629 5630 5630 5631 5631 5631 5631 5631 5632 5632 5632 5633 5633 5634 5635 5636 5637 5637 5638 5638 5638 5639 5641 5642 5641 5640 5639 5638 5638
5607 5606 5606 5606 5606 5607 5607 5607 5608 5609 5610 5611 5611 5612 5612 5613 5614 5614 5614 5614 5614 5615 5616 5616 5616 5616 5616 5616 5617 5617 5618 5619 5619 5620 5621 5621 5622 5622 5623 5623 5623 5623 5624 5624 5624 5624 5624 5624 5624 5623 5623 5623 5623 5623 5623 5624 5624 5624 5624 5624 5625 5625 5625 5626 5626 5626 5627 5627 5628 5629 5629 5630 5630 5632 5632 5633 5634 5634 5634 5635 5636 5637 5636 5634 5634 5635 5635
5608 5608 5608 5608 5608 5608 5608 5609 5609 5609 5610 5611 5611 5611 5612 5613 5613 5613 5614 5614 5614 5615 5615 5615 5615 5615 5615 5615 5615 5616 5617 5617 5618 5619 5619 5619 5620 5620 5621 5621 5621 5621 5621 5621 5621 5621 5621 5621 5621 5621 5620 5620 5620 5620 5620 5620 5620 5619 5619 5619 5620 5620 5620 5620 5621 5621 5622 5622 5623 5624 5624 5625 5626 5627 5628 5628 5629 5629 5629 5630 5631 5631 5630 5630 5630 5631 5631
5608 5608 5608 5608 5609 5609 5610 5610 5610 5610 5611 5611 5611 5611 5612 5612 5612 5612 5613 5613 5613 5613 5613 5613 5613 5613 5613 5613 5613 5614 5614 5614 5615 5616 5616 5616 5617 5617 5617 5617 5617 5617 5617 5617 5617 5617 5617 5617 5617 5617 5616 5616 5616 5616 5616 5615 5615 5615 5615 5615 5615 5615 5615 5615 5615 5615 5616 5617 5618 5618 5619 5620 5621 5622 5623 5624 5624 5624 5624 5625 5625 5625 5625 5625 5625 5625 5626
5609 5608 5608 5608 5608 5609 5609 5610 5610 5610 5611 5611 5611 5611 5611 5611 5611 5611 5611 5611 5611 5611 5611 5611 5611 5611 5611 5611 5610 5611 5611 5611 5611 5612 5612 5612 5613 5613 5613 5613 5613 5612 5612 5612 5612 5612 5612 5612 5612 5611 5611 5611 5610 5610 5610 5610 5610 5610 5610 5610 5610 5610 5610 5610 5610 5610 5610 5611 5612 5612 5613 5614 5615 5616 5617 5618 5618 5618 5619 5619 5619 5619 5619 5619 5619 5619 5619
5608 5608 5608 5608 5608 5608 5608 5608 5608 5609 5609 5609 5609 5609 5609 5609 5609 5610 5609 5609 5609 5608 5608 5608 5608 5608 5608 5608 5608 5608 5608 5608 5609 5609 5609 5609 5609 5609 5609 5609 5608 5608 5608 5607 5607 5607 5607 5607 5607 5606 5606 5606 5605 5605 5605 5605 5604 5604 5604 5605 5605 5605 5605 5605 5605 5605 5605 5606 5606 5607 5607 5608 5609 5610 5611 5611 5612 5612 5613 5613 5613 5613 5613 5613 5613 5613 5612
5607 5607 5606 5606 5606 5606 5607 5607 5606 5606 5606 5606 5606 5606 5606 5606 5606 5606 5606 5606 5606 5605 5605 5605 5605 5605 5605 5605 5605 5605 5605 5605 5605 5605 5605 5605 5605 5605 5604 5604 5604 5604 5603 5603 5603 5602 5602 5602 5601 5601 5601 5600 5600 5600 5600 5599 5599 5599 5599 5599 5599 5600 5600 5600 5600 5600 5600 5601 5601 5601 5601 5602 5602 5603 5604 5604 5605 5605 5606 5606 5606 5607 5607 5607 5607 5606 5606